Vorticity
4 2 1 1 6 9 9 12 13 8 3 6 5 4 8 6 5 3 4 2 -3 7 13 10 12 10 5 7 7 6 9 6 3 6 6 3 3 4 3 2 4 4 4 4 3 3 3 4 4 4 5 5
9 7 5 2 2 3 5 10 13 15 10 9 11 9 6 1 0 1 4 4 -1 3 11 12 11 12 13 14 11 7 12 9 4 4 4 2 1 2 3 3 2 3 4 4 3 3 4 4 4 5 5 5
11 10 7 3 4 7 5 5 6 12 17 16 13 10 7 4 1 -1 1 5 6 8 11 14 13 11 12 16 15 14 18 12 4 7 4 0 1 3 5 6 6 5 4 4 4 4 4 5 5 5 5 5
11 9 8 4 3 10 9 7 5 5 12 19 16 16 19 15 11 10 14 17 16 16 11 8 9 9 10 13 16 19 23 16 10 11 3 -2 0 4 6 7 8 6 4 5 5 5 5 5 6 6 6 6
9 5 7 10 6 4 6 9 12 8 5 11 13 14 15 20 31 25 17 23 26 24 15 9 6 4 6 10 18 23 23 21 17 11 3 4 6 4 4 5 4 2 3 4 4 4 5 5 5 5 5 5
8 8 6 9 8 1 1 4 7 9 6 3 2 1 -1 7 30 23 6 16 25 26 22 18 12 5 6 9 17 25 23 20 17 14 14 16 13 5 2 2 3 4 5 4 4 4 4 4 4 3 3 3
8 10 7 6 7 4 2 4 2 3 5 4 -0 -1 0 1 12 11 3 9 14 19 23 22 16 8 7 8 16 25 25 23 19 18 21 19 16 13 10 7 7 6 4 3 4 4 3 4 4 4 3 3
5 6 8 6 6 5 3 4 4 2 2 7 7 4 6 5 3 0 -3 0 2 6 9 14 17 17 15 10 13 21 22 23 21 18 19 18 16 14 13 13 10 7 5 5 4 3 2 3 3 4 4 4
4 5 6 5 4 4 4 5 4 3 3 7 10 7 5 6 6 3 -0 -1 -1 2 3 5 11 18 23 21 19 19 18 18 16 13 14 15 12 11 12 12 10 9 8 6 6 5 5 6 6 6 6 6
4 2 2 2 2 3 6 8 4 4 7 6 7 8 4 4 6 5 5 4 1 1 2 3 5 8 13 19 24 25 23 20 17 17 17 17 16 15 16 16 13 12 10 9 10 11 12 12 11 10 9 9
8 5 7 7 6 10 12 9 2 5 12 7 1 0 -0 2 5 6 7 8 7 3 1 0 1 2 3 6 12 18 21 21 19 19 18 17 16 14 13 13 12 11 10 9 8 8 8 9 10 10 9 8
10 7 10 11 7 7 8 4 -0 3 8 9 5 0 1 2 3 4 3 3 4 5 6 6 2 1 3 2 2 4 9 12 13 15 13 9 7 5 4 4 3 3 2 1 1 1 1 2 4 6 7 8
12 8 7 10 9 4 3 4 5 5 2 4 8 3 -0 -2 -3 0 1 -1 -1 2 6 9 9 6 6 4 1 -0 1 4 7 9 10 8 7 5 2 1 0 0 1 1 3 4 5 6 7 7 8 7
12 10 6 8 11 10 12 10 6 7 3 2 6 6 4 -3 -6 -2 1 1 1 4 5 4 5 9 12 10 6 5 3 4 5 4 5 4 6 6 3 3 2 2 3 5 6 6 7 8 8 8 8 7
11 12 10 8 6 6 11 9 3 3 5 5 2 4 10 7 1 2 4 5 2 2 4 5 4 4 10 12 12 13 10 8 7 6 5 3 2 2 0 1 3 4 7 7 6 6 6 6 7 7 6 6
11 11 11 11 7 4 5 6 6 5 8 14 13 9 11 13 9 6 7 8 7 6 6 10 13 10 10 10 11 14 12 10 9 8 9 9 8 6 3 4 5 8 11 11 9 9 9 8 7 5 4 3
9 10 12 14 14 9 5 5 7 7 3 7 14 16 17 22 25 21 17 16 13 10 6 6 11 14 14 12 11 11 9 8 7 6 7 9 9 8 7 9 8 6 8 10 10 11 10 10 7 4 4 2
8 9 10 11 10 7 9 11 11 9 6 3 2 3 3 6 13 16 15 16 17 16 13 10 9 11 12 13 11 10 8 7 6 5 6 7 8 8 7 8 8 5 4 4 5 6 6 6 5 4 5 3
13 11 9 8 5 3 9 14 9 6 13 15 10 8 5 1 3 9 11 9 9 12 14 15 14 11 10 11 10 9 8 7 6 7 8 7 7 9 10 9 9 7 6 5 4 4 5 5 5 5 5 5
13 14 14 13 11 7 7 8 4 3 12 13 7 7 11 14 14 11 9 6 4 5 6 9 11 12 11 12 12 11 10 8 6 5 8 8 6 6 9 9 10 8 6 7 5 5 5 5 6 5 5 5
7 8 11 13 14 13 10 9 6 6 9 7 3 3 4 10 9 1 -2 -0 2 3 2 2 3 5 6 7 9 11 11 10 8 6 6 8 7 5 5 5 6 7 5 6 6 5 5 5 5 5 4 4
7 6 7 8 9 10 11 14 13 11 9 7 6 6 2 -1 -1 -1 1 2 3 4 7 6 3 3 3 2 2 4 6 7 8 8 7 8 8 7 7 7 7 7 6 7 8 7 7 7 7 6 6 7
8 8 8 8 7 6 7 9 12 13 13 12 10 12 9 4 3 2 1 6 9 8 9 9 6 6 6 4 3 3 4 4 5 5 6 7 8 8 9 9 10 10 9 10 10 10 9 8 9 9 9 10
7 7 7 8 9 8 7 7 7 9 11 12 11 12 13 10 10 7 1 1 4 6 8 8 8 9 7 7 7 7 8 7 5 5 5 6 7 7 7 7 7 8 8 8 8 8 9 10 11 11 11 10
7 7 7 7 8 7 8 9 9 8 8 10 10 11 11 8 7 9 7 2 1 6 10 8 9 9 7 7 6 7 9 11 10 11 11 10 9 7 7 7 7 8 7 8 9 10 11 10 9 9 9 9
5 6 7 7 7 7 7 8 8 8 7 7 9 10 11 11 9 10 10 7 3 3 4 3 4 6 7 8 8 7 6 7 9 11 11 11 12 11 9 9 9 11 13 14 14 12 10 9 10 11 11 11
2 2 2 3 5 6 5 6 6 8 9 8 8 8 9 10 11 11 11 10 7 4 3 3 2 4 7 7 9 10 9 7 5 6 8 9 10 10 10 9 10 12 13 12 10 8 9 11 11 10 9 10
3 1 1 0 1 3 3 4 4 5 6 8 8 8 7 8 9 10 10 11 11 7 5 3 1 2 4 4 5 8 11 12 10 7 5 5 5 6 8 9 9 8 8 6 6 8 9 8 5 5 9 10
4 3 2 1 1 1 2 3 3 3 3 4 6 7 7 7 7 7 8 9 10 10 8 7 5 1 1 3 2 2 6 9 11 10 6 5 6 6 7 7 6 5 5 6 6 7 7 6 7 10 11 8
5 4 3 3 2 1 2 3 3 3 3 3 4 5 5 5 5 6 6 7 7 8 9 9 8 6 5 6 5 5 7 7 9 10 10 9 9 8 8 6 6 7 7 6 4 5 6 7 8 8 7 6
6 5 4 4 4 3 1 2 3 4 3 4 4 4 4 3 4 5 6 6 6 7 8 8 8 9 8 6 7 5 1 2 6 7 9 10 10 10 9 7 8 10 8 6 6 7 7 6 6 6 5 6
Height
5748 5749 5749 5747 5747 5746 5746 5746 5746 5747 5748 5748 5748 5749 5752 5753 5752 5752 5753 5753 5754 5756 5757 5758 5759 5761 5763 5764 5765 5767 5768 5770 5772 5774 5775 5776 5778 5779 5781 5783 5784 5786 5787 5789 5790 5791 5792 5794 5795 5797 5799 5801
5744 5744 5745 5744 5744 5744 5743 5743 5743 5744 5745 5745 5745 5746 5748 5749 5749 5749 5749 5749 5749 5751 5752 5753 5754 5756 5758 5759 5760 5761 5763 5764 5765 5767 5769 5771 5772 5774 5775 5777 5779 5781 5782 5784 5785 5786 5788 5789 5791 5793 5794 5796
5740 5740 5741 5741 5740 5740 5740 5740 5740 5741 5741 5742 5742 5742 5744 5745 5745 5744 5745 5745 5745 5745 5746 5747 5748 5749 5751 5753 5755 5756 5757 5758 5759 5761 5763 5765 5766 5767 5770 5772 5773 5775 5777 5778 5780 5781 5783 5785 5787 5788 5790 5792
5736 5736 5737 5737 5737 5738 5737 5737 5737 5738 5738 5738 5739 5739 5739 5740 5741 5740 5740 5740 5740 5740 5739 5741 5742 5743 5744 5746 5748 5750 5752 5753 5754 5755 5756 5758 5759 5761 5764 5766 5767 5769 5771 5773 5775 5777 5779 5781 5782 5783 5786 5788
5733 5733 5733 5733 5734 5735 5734 5734 5735 5735 5735 5735 5736 5736 5736 5736 5736 5736 5736 5735 5735 5735 5735 5736 5737 5737 5738 5740 5742 5745 5747 5748 5749 5749 5751 5752 5753 5755 5758 5760 5762 5763 5765 5768 5770 5772 5774 5775 5777 5779 5781 5783
5729 5730 5729 5728 5730 5731 5731 5731 5731 5731 5731 5732 5733 5733 5732 5733 5732 5732 5733 5732 5732 5731 5731 5732 5733 5733 5734 5735 5737 5740 5742 5744 5744 5745 5747 5748 5748 5750 5752 5754 5756 5758 5760 5763 5765 5768 5769 5770 5772 5774 5777 5779
5726 5726 5725 5725 5726 5727 5727 5727 5727 5727 5728 5728 5728 5729 5729 5729 5729 5729 5729 5729 5729 5728 5728 5729 5729 5730 5731 5731 5734 5736 5738 5740 5741 5742 5745 5746 5746 5747 5747 5748 5750 5753 5756 5759 5761 5763 5764 5765 5768 5770 5772 5774
5722 5722 5722 5721 5722 5723 5723 5723 5723 5723 5723 5724 5724 5724 5724 5725 5726 5727 5727 5726 5727 5726 5726 5726 5726 5727 5727 5728 5730 5732 5734 5736 5738 5740 5742 5743 5745 5746 5745 5746 5747 5749 5752 5755 5757 5759 5760 5761 5764 5765 5767 5770
5719 5719 5719 5718 5718 5719 5720 5719 5719 5719 5719 5719 5719 5720 5720 5721 5722 5723 5724 5723 5724 5724 5724 5724 5724 5724 5725 5725 5727 5729 5730 5732 5734 5736 5738 5739 5741 5742 5743 5744 5745 5747 5749 5751 5753 5755 5756 5758 5760 5761 5763 5765
5714 5715 5714 5715 5715 5716 5716 5716 5716 5716 5714 5714 5714 5714 5716 5717 5718 5719 5720 5721 5721 5721 5722 5722 5722 5722 5722 5723 5724 5726 5727 5729 5730 5732 5733 5735 5736 5737 5739 5740 5741 5743 5745 5747 5749 5750 5752 5754 5756 5757 5759 5760
5710 5711 5710 5710 5712 5713 5713 5713 5713 5712 5710 5709 5709 5709 5710 5712 5713 5714 5716 5717 5717 5718 5718 5719 5720 5719 5719 5720 5721 5722 5723 5725 5726 5728 5729 5731 5732 5733 5734 5736 5737 5739 5740 5742 5744 5746 5748 5749 5751 5753 5754 5756
5706 5706 5706 5705 5707 5709 5709 5708 5708 5707 5706 5705 5705 5705 5705 5707 5709 5710 5711 5712 5713 5714 5714 5715 5716 5716 5716 5717 5718 5718 5719 5720 5722 5723 5725 5726 5727 5728 5730 5731 5732 5734 5735 5737 5739 5740 5742 5744 5746 5747 5749 5751
5703 5703 5703 5702 5703 5704 5705 5704 5704 5704 5702 5701 5701 5701 5701 5702 5704 5705 5706 5707 5708 5708 5709 5710 5711 5711 5712 5713 5714 5715 5715 5717 5718 5719 5720 5721 5723 5724 5725 5726 5728 5729 5730 5732 5733 5735 5737 5738 5740 5742 5744 5745
5700 5700 5700 5699 5699 5699 5698 5698 5698 5698 5698 5697 5697 5697 5697 5697 5698 5700 5701 5701 5702 5703 5704 5705 5706 5706 5707 5707 5709 5710 5710 5712 5713 5714 5715 5717 5718 5719 5720 5721 5723 5724 5726 5727 5728 5730 5732 5733 5735 5736 5738 5740
5696 5696 5696 5696 5694 5694 5692 5692 5692 5692 5692 5693 5693 5693 5692 5692 5693 5694 5695 5695 5696 5698 5699 5700 5701 5702 5702 5703 5704 5705 5705 5707 5708 5709 5710 5712 5713 5714 5716 5717 5718 5720 5721 5722 5724 5725 5727 5728 5730 5731 5733 5735
5691 5691 5692 5691 5690 5689 5688 5688 5687 5687 5688 5688 5688 5688 5687 5688 5689 5690 5690 5689 5690 5692 5693 5694 5695 5696 5697 5698 5699 5700 5701 5702 5704 5704 5705 5707 5708 5709 5711 5712 5713 5715 5716 5717 5718 5720 5721 5723 5724 5726 5728 5729
5686 5686 5688 5687 5685 5684 5683 5684 5684 5683 5683 5683 5684 5684 5683 5684 5684 5685 5684 5684 5684 5685 5687 5688 5689 5690 5691 5692 5693 5695 5696 5697 5699 5699 5700 5702 5703 5704 5706 5707 5708 5709 5711 5712 5713 5715 5716 5718 5719 5721 5722 5724
5681 5681 5683 5682 5680 5679 5679 5680 5679 5679 5679 5679 5680 5680 5680 5680 5680 5680 5680 5679 5679 5680 5681 5682 5683 5684 5685 5686 5687 5689 5690 5691 5693 5694 5694 5696 5697 5699 5700 5701 5703 5704 5705 5706 5708 5709 5711 5712 5714 5715 5717 5719
5675 5675 5676 5677 5676 5676 5676 5676 5675 5674 5675 5676 5675 5675 5675 5675 5676 5675 5675 5675 5675 5675 5676 5677 5678 5678 5680 5681 5682 5683 5683 5684 5686 5687 5688 5689 5690 5692 5693 5695 5696 5698 5699 5700 5702 5703 5704 5706 5708 5709 5711 5713
5669 5669 5670 5670 5671 5671 5671 5671 5671 5671 5672 5672 5670 5670 5670 5671 5671 5670 5670 5670 5670 5671 5671 5672 5673 5673 5674 5676 5677 5677 5677 5678 5680 5680 5680 5681 5683 5684 5686 5688 5689 5691 5693 5694 5695 5696 5698 5700 5701 5703 5705 5706
5663 5663 5664 5664 5665 5665 5665 5665 5667 5667 5667 5667 5666 5666 5667 5667 5666 5665 5665 5665 5665 5666 5667 5667 5668 5669 5670 5670 5671 5671 5671 5672 5673 5674 5674 5675 5677 5678 5679 5681 5682 5685 5687 5688 5689 5690 5692 5693 5694 5697 5699 5700
5657 5658 5658 5658 5658 5659 5659 5659 5660 5660 5660 5661 5661 5661 5662 5662 5661 5661 5661 5660 5660 5661 5662 5662 5662 5663 5664 5665 5665 5665 5665 5667 5668 5668 5669 5669 5672 5673 5674 5676 5676 5678 5681 5682 5683 5684 5686 5687 5688 5691 5692 5693
5651 5652 5653 5652 5651 5652 5653 5653 5654 5654 5654 5655 5655 5656 5656 5656 5656 5657 5657 5655 5654 5654 5655 5656 5657 5657 5658 5659 5659 5659 5660 5662 5662 5662 5663 5664 5666 5668 5669 5670 5671 5673 5675 5676 5677 5678 5679 5680 5682 5684 5686 5687
5646 5647 5648 5647 5646 5646 5647 5647 5647 5648 5648 5648 5648 5650 5650 5650 5650 5651 5651 5650 5648 5647 5648 5648 5650 5650 5651 5651 5653 5654 5654 5655 5656 5656 5657 5659 5660 5662 5663 5664 5665 5667 5669 5669 5670 5671 5673 5674 5676 5678 5679 5680
5642 5642 5642 5641 5641 5640 5640 5640 5641 5641 5642 5641 5642 5643 5643 5643 5643 5643 5644 5643 5642 5642 5642 5640 5641 5644 5644 5644 5646 5647 5648 5648 5649 5651 5652 5653 5654 5655 5656 5657 5659 5660 5662 5663 5664 5665 5666 5667 5669 5671 5672 5673
5637 5637 5636 5636 5635 5635 5635 5634 5634 5634 5634 5634 5635 5636 5637 5636 5636 5636 5636 5636 5636 5637 5636 5634 5634 5637 5637 5637 5639 5640 5642 5642 5643 5644 5646 5646 5647 5648 5649 5650 5651 5653 5655 5655 5656 5657 5658 5661 5662 5664 5666 5667
5631 5631 5631 5630 5629 5629 5629 5628 5628 5628 5628 5628 5629 5629 5630 5630 5630 5630 5630 5630 5630 5631 5631 5629 5629 5630 5630 5630 5631 5633 5635 5637 5637 5637 5638 5639 5640 5640 5641 5643 5644 5646 5647 5647 5648 5650 5652 5654 5655 5657 5659 5661
5625 5624 5624 5623 5623 5622 5622 5622 5622 5622 5621 5623 5623 5622 5622 5623 5623 5623 5623 5623 5624 5624 5625 5624 5623 5624 5624 5623 5623 5624 5627 5630 5632 5631 5631 5633 5634 5634 5635 5636 5637 5638 5639 5640 5642 5643 5645 5646 5647 5651 5654 5654
5617 5616 5616 5616 5616 5616 5615 5614 5615 5614 5615 5615 5615 5615 5615 5615 5615 5615 5615 5616 5616 5617 5617 5617 5616 5616 5617 5617 5616 5616 5618 5622 5624 5625 5625 5626 5628 5629 5629 5630 5630 5631 5632 5634 5635 5636 5638 5639 5641 5645 5646 5646
5609 5608 5608 5608 5609 5609 5608 5607 5607 5607 5607 5607 5607 5607 5607 5606 5607 5607 5607 5607 5608 5609 5609 5609 5609 5609 5610 5611 5611 5610 5609 5612 5615 5617 5618 5619 5621 5622 5623 5623 5624 5625 5626 5626 5628 5630 5631 5632 5635 5637 5637 5638
5601 5600 5599 5599 5600 5600 5600 5600 5600 5599 5599 5599 5599 5599 5599 5599 5600 5600 5600 5599 5600 5601 5601 5602 5601 5602 5603 5603 5604 5604 5602 5604 5607 5609 5610 5611 5613 5615 5615 5616 5619 5620 5618 5619 5622 5624 5625 5626 5627 5629 5630 5632